Location: Saint John
(45.2733°N, 66.0633°W)
Time: 11:52:33
(UTC-04:00)

BlueWalker 3 - Pass Details

Date: 30 November 2022
Orbit: 499 x 517 km, 53.2° (Epoch: 01 February)

Event Time Altitude Azimuth Distance (km) Brightness Sun altitude
Rises 17:20:44 0° 262° (W) 2,628 7.3 -6.6°
Reaches altitude 10° 17:23:03 10° 271° (W) 1,739 5.9 -7.0°
Maximum altitude 17:26:44 37° 340° (NNW) 808 3.0 -7.6°
Drops below altitude 10° 17:30:24 10° 49° (NE) 1,732 4.1 -8.2°
Enters shadow 17:30:29 10° 50° (NE) 1,760 4.1 -8.2°
